Weather History for Durango, CO

Change the Weather History Date:

Friday, January 10, 2014

  Actual Average Record
Temperature  
Mean Temperature 33 °F 23 °F  
Max Temperature 41 °F 37 °F 56 °F (1981)
Min Temperature 24 °F 9 °F -12 °F (1977)
Degree Days  
Heating Degree Days 32 42  
Month to date heating degree days 387 419  
Since 1 July heating degree days 3345 3293  
Cooling Degree Days 0 0  
Month to date cooling degree days 0 0  
Year to date cooling degree days 0 0  
Moisture  
Dew Point 15 °F    
Average Humidity 53    
Maximum Humidity 69    
Minimum Humidity 37    
Precipitation  
Precipitation 0.00 in 0.03 in 1.24 in (1980)
Month to date precipitation T 0.35  
Year to date precipitation T 0.35  
Sea Level Pressure  
Sea Level Pressure 29.99 in    
Wind  
Wind Speed 17 mph (West)    
Max Wind Speed 37 mph    
Max Gust Speed 48 mph    
Visibility 10 miles    
Events      
T = Trace of Precipitation, MM = Missing Value Source: NWS Daily Summary

Daily Weather History Graph

Daily Weather History Graph

Search for Another Location

Airport:

Trip Planner

Search our weather history database for the weather conditions in past years. The results will help you decide how hot, cold, wet, or windy it might be!

Date:

Astronomy

Jan. 10, 2014 Rise Set
Actual Time 7:24 AM MST 5:12 PM MST
Civil Twilight 6:56 AM MST 5:41 PM MST
Nautical Twilight 6:23 AM MST 6:13 PM MST
Astronomical Twilight 5:52 AM MST 6:44 PM MST
Moon 1:16 PM MST (1/10) 2:37 AM MST (1/10)
Length of Visible Light 10h 45m
Length of Day
9h 47m
Waxing Gibbous, 75% of the Moon is Illuminated
Jan 10
Waxing Gibbous
Jan 15
Full
Jan 23
Last Quarter
Jan 30
New
Feb 6
First Quarter

Hourly Weather History & Observations

Time (MST) Temp. Windchill Dew Point Humidity Pressure Visibility Wind Dir Wind Speed Gust Speed Precip Events Conditions
12:53 AM 30.0 °F 16.6 °F 19.0 °F 64% 29.90 in 10.0 mi WSW 23.0 mph - N/A   Partly Cloudy
1:53 AM 32.0 °F 22.1 °F 18.0 °F 56% 29.89 in 10.0 mi West 13.8 mph - N/A   Scattered Clouds
2:53 AM 34.0 °F 21.3 °F 12.0 °F 40% 29.86 in 10.0 mi WNW 25.3 mph 42.6 mph N/A   Clear
3:53 AM 32.0 °F 19.5 °F 12.0 °F 44% 29.91 in 10.0 mi WNW 21.9 mph 29.9 mph N/A   Clear
4:53 AM 30.0 °F 19.5 °F 10.9 °F 45% 29.94 in 10.0 mi West 13.8 mph - N/A   Clear
5:53 AM 26.1 °F 18.4 °F 10.9 °F 53% 29.99 in 10.0 mi SW 6.9 mph - N/A   Clear
6:53 AM 24.1 °F 16.0 °F 12.9 °F 62% 30.00 in 10.0 mi WSW 6.9 mph - N/A   Clear
7:53 AM 28.0 °F 18.6 °F 14.0 °F 56% 29.99 in 10.0 mi SW 10.4 mph - N/A   Clear
8:53 AM 30.9 °F 21.2 °F 16.0 °F 54% 30.00 in 10.0 mi WSW 12.7 mph 18.4 mph N/A   Clear
9:53 AM 33.1 °F 26.9 °F 16.0 °F 50% 30.01 in 10.0 mi SW 6.9 mph 21.9 mph N/A   Partly Cloudy
10:53 AM 37.9 °F 29.6 °F 14.0 °F 38% 29.96 in 10.0 mi NNW 13.8 mph 19.6 mph N/A   Clear
11:53 AM 39.0 °F 27.2 °F 15.1 °F 38% 29.94 in 10.0 mi WNW 29.9 mph 43.7 mph N/A   Clear
12:53 PM 39.9 °F 27.3 °F 15.1 °F 36% 29.92 in 10.0 mi WNW 36.8 mph 47.2 mph N/A   Clear
1:53 PM 39.9 °F 28.4 °F 15.1 °F 36% 29.91 in 10.0 mi WNW 29.9 mph 40.3 mph N/A   Overcast
2:53 PM 39.0 °F 28.8 °F 18.0 °F 43% 29.93 in 10.0 mi WNW 21.9 mph 33.4 mph N/A   Clear
3:53 PM 39.0 °F 27.6 °F 16.0 °F 39% 29.95 in 10.0 mi WNW 27.6 mph 39.1 mph N/A   Partly Cloudy
4:53 PM 37.9 °F 26.1 °F 16.0 °F 41% 29.98 in 10.0 mi WNW 27.6 mph 38.0 mph N/A   Clear
5:53 PM 36.0 °F 23.7 °F 16.0 °F 44% 30.04 in 10.0 mi WNW 26.5 mph 34.5 mph N/A   Clear
6:53 PM 36.0 °F 24.7 °F 15.1 °F 43% 30.06 in 10.0 mi WNW 21.9 mph 31.1 mph N/A   Clear
7:53 PM 36.0 °F 28.5 °F 15.1 °F 43% 30.09 in 10.0 mi NW 10.4 mph 23.0 mph N/A   Clear
8:53 PM 34.0 °F 31.0 °F 15.1 °F 46% 30.12 in 10.0 mi SE 3.5 mph - N/A   Clear
9:53 PM 30.9 °F 26.2 °F 15.1 °F 52% 30.15 in 10.0 mi NNW 4.6 mph - N/A   Clear
10:53 PM 30.0 °F 24.1 °F 16.0 °F 56% 30.15 in 10.0 mi West 5.8 mph - N/A   Clear
11:53 PM 32.0 °F 26.4 °F 15.1 °F 50% 30.12 in 10.0 mi WSW 5.8 mph - N/A   Clear